FLOCK 4Y-18 (55023 NORAD) Tracking and Keplerian Element Data

This shows tracking and keplerian element data for the satellite.

Feedback or suggestion? Click here.




ElementValue
Catalog55023
NameFLOCK 4Y-18
Epoch Orbit1248
Epoch Day85.11463833
Epoch Year2023
RAAN145.9412
Inclination97.4899
Eccentricity0.0009529
Argument of Perigee298.2436
Mean Anonmoly61.7834
Mean Motion15.15674017
Decay Rate0.00027802
L11 55023U 23001Q 23085.11463833 .00027802 00000+0 14585-2 0 9991
L22 55023 97.4899 145.9412 0009529 298.2436 61.7834 15.15674017 12489



Live tracking and technical data element details for FLOCK 4Y-18 (NORAD 55023). FLOCK 4Y-18 can be tracked NOW for your location showing map with azimuth and elevation plus other details from your city location.







IsCatalogInMostPopularTable: catalog: 55023, numindb: 10
Update: records affected: 1



GetName: 55023 FLOCK 4Y-18

Hit Count: updated at: Mon, 27 Mar 2023 07:13:06 GMT